sat.trackr.live / text

‹ back to catalog

STARLINK-11380 [DTC]

NORAD 62099 · 2024-220M

PAYLOAD ACTIVE UNKNOWN

§ Identity

Operator
Country
US
Launch date
2024-11-25
Launch site
AFETR
Launch vehicle
Mass (kg)
RCS (m²)

Purposes: comms

External: N2YO · Heavens-Above · Gunter

§ Orbital elements

Epoch: 2026-09-21T02:46:44.564448Z

Period
91.67 min
Inclination
42.9983°
Eccentricity
0.0000706
Mean motion
15.70869337 rev/d
Perigee alt
355.9 km
Apogee alt
356.9 km
Semi-major
6,734.5 km
B*
8.1853e-4
RAAN
304.6613°
Arg perigee
254.8780°
Mean anomaly
105.2010°
Rev number
10,569

§ Raw data

STARLINK-11380 [DTC]1 62099U 24220M   26264.11579357  .00106058  00000+0  81853-3 0  99912 62099  42.9983 304.6613 0000706 254.8780 105.2010 15.70869337105692

JSON: /api/v1/satellites/62099 · /tle

For live sub-satellite position, see the globe view (requires WebGL).

§ Visibility from observer

Set your observer location to see the next 7 days of passes ≥ 10°. The values pass through the URL so the page stays shareable.

No JS? Fill the form by hand. The geolocation button needs JavaScript.